KINEIS-4D

导读 | 星芒AI

KINEIS-4D 是由法国公司 Kineis 开发的一颗低轨卫星,旨在提供基于卫星的物联网(IoT)连接服务。该卫星采用 4D 打印技术制造,具备轻量化、高耐久性和快速部署的优势。KINEIS-4D 作为 Kineis 卫星星座的一部分,致力于为远程地区提供低功耗、广覆盖的通信解决方案,适用于智能农业、环境监测和资产追踪等领域。

基本信息
目录编号:
63301
目录名称:
KINEIS-4C
国际标识:
2025-056B
轨道中心:
EARTH
卫星名称:
KINEIS-4D
卫星全名:
KINEIS-4D
卫星状态:
在轨 (已飞行272 天)
发射日期:
2025-03-18 UTC
国别 :
法国 (FR)
星等 :
--
轨道信息
数据来源 国际轨道数据
星历时间: 2025-12-15T06:48:48+0800
19小时前
查看轨道信息
半长轴: 7032.139km
偏心率: 0.0001334
轨道倾角: 98.001°
近地点辐角 164.906°
升交点赤经 111.757°
平近点角 195.219°
近地点: 653.065km
远地点: 654.943km
周期: 97.812分钟
每日圈数: 14.722162
详细信息
使用方式:
暂无
2D轨道图
3D轨道图
轨道高度分析图
轨道倾角分析图
轨道综合分析图
查看轨道综合分析图